Terminal Aerodrome Forecast
Issued by NWS

Home | Current Version | Previous Version | Graphics & Text | Print | Product List | Glossary On
Versions: 1 2 3 4 5 6 7 8 9 10 11 12 13 14 15 16 17 18 19 20 21 22
000
FTUS43 KABR 310508 AAB
TAFATY
TAF AMD
KATY 310508Z 3105/3124 31012KT 3SM +TSRA BR VCTS BKN028 BKN045CB
      OVC070
     FM310600 25009KT P6SM SCT100
     FM311600 25013KT P6SM SCT250=

USA.gov is the U.S. government's official web portal to all federal, state and local government web resources and services.